Terug naar catalogus

STARLINK-6076

ActiefCommunicatieVLEO
NORAD 56100·PAYLOAD·🇺🇸 United States

Gelanceerd Mar 29, 2023 vanaf Cape Canaveral Space Force Station

Loading…

Volgende Passages (komende 24 uur)

TLE

VersSource: CelesTrak SupGP

Epoch: Sep 15, 2026, 02:53 UTC

1 56100C 23046H   26258.12062500  .00024813  00000+0  89884-3 0  2581
2 56100  43.0009 171.4100 0001481 269.4486 198.2517 15.27561180    17

Volg STARLINK-6076 in realtime met AllMySat

Download on the App Store